WB5TZJ Weather Reports


Display with metric or nautical units.
time (UTC)temp
F
wind
direction
speed
MPH
gust
MPH
rain 1hr
in
rain 24hr
in
rain mn
in
humidity
%
barometer
mb
20260507105022 73 0 0.0 0.0 0.00 0.00 0.00 44 1013.2
20260507104022 73 0 0.0 0.0 0.00 0.00 0.00 46 1012.8
20260507103022 72 0 0.0 0.0 0.00 0.00 0.00 44 1012.8
20260507102022 72 0 0.0 0.0 0.00 0.00 0.00 44 1012.8
20260507101023 72 0 0.0 0.0 0.00 0.00 0.00 42 1012.5
20260507100023 72 0 0.0 0.0 0.00 0.00 0.00 43 1012.5
20260507095023 72 0 0.0 0.0 0.00 0.00 0.00 41 1012.8
20260507094023 73 0 0.0 0.0 0.00 0.00 0.00 42 1012.8
20260507093023 73 0 0.0 0.0 0.00 0.00 0.00 43 1012.8
20260507092023 73 0 0.0 0.0 0.00 0.00 0.00 46 1012.5
20260507091023 72 0 0.0 0.0 0.00 0.00 0.00 45 1012.5
20260507090023 72 0 0.0 0.0 0.00 0.00 0.00 42 1012.5
20260507085023 72 0 0.0 0.0 0.00 0.00 0.00 43 1012.5
20260507084023 72 0 0.0 0.0 0.00 0.00 0.00 45 1012.8
20260507083023 72 0 0.0 0.0 0.00 0.00 0.00 43 1012.5
20260507082023 72 0 0.0 0.0 0.00 0.00 0.00 41 1012.5
20260507081023 73 0 0.0 0.0 0.00 0.00 0.00 41 1012.5
20260507080023 73 0 0.0 0.0 0.00 0.00 0.00 42 1012.8
20260507075023 73 0 0.0 0.0 0.00 0.00 0.00 44 1013.2
20260507074023 73 0 0.0 0.0 0.00 0.00 0.00 47 1013.2
20260507073023 72 0 0.0 0.0 0.00 0.00 0.00 45 1013.2
20260507072023 72 0 0.0 0.0 0.00 0.00 0.00 41 1012.8
20260507071023 73 0 0.0 0.0 0.00 0.00 0.00 41 1013.2
20260507070023 73 0 0.0 0.0 0.00 0.00 0.00 42 1013.2
20260507065023 73 0 0.0 0.0 0.00 0.00 0.00 44 1013.2
20260507064023 73 0 0.0 0.0 0.00 0.00 0.00 47 1012.8
20260507063023 72 0 0.0 0.0 0.00 0.00 0.00 46 1012.8
20260507062023 72 0 0.0 0.0 0.00 0.00 0.00 42 1013.2
20260507061023 72 0 0.0 0.0 0.00 0.00 0.00 43 1012.8
20260507060023 72 0 0.0 0.0 0.00 0.00 0.00 41 1012.8
20260507055023 72 0 0.0 0.0 0.00 0.00 0.00 41 1012.8
20260507054023 72 0 0.0 0.0 0.00 0.00 0.00 42 1012.8
20260507053023 72 0 0.0 0.0 0.00 0.00 0.00 43 1012.5
20260507052526 72 0 0.0 0.0 0.00 0.00 0.00 45 1012.5
20260507052023 72 0 0.0 0.0 0.00 0.00 0.00 42 1012.8
20260507051023 72 0 0.0 0.0 0.00 0.00 0.00 42 1012.5
20260507050023 72 0 0.0 0.0 0.00 0.00 0.00 42 1012.5
20260507045023 72 0 0.0 0.0 0.00 0.00 0.00 43 1012.8
20260507044023 72 0 0.0 0.0 0.00 0.00 0.00 42 1012.5
20260507043023 72 0 0.0 0.0 0.00 0.00 0.00 42 1012.5
20260507042526 72 0 0.0 0.0 0.00 0.00 0.00 42 1012.5
20260507042024 72 0 0.0 0.0 0.00 0.00 0.00 43 1012.1
20260507041024 72 0 0.0 0.0 0.00 0.00 0.00 42 1011.5
20260507040024 72 0 0.0 0.0 0.00 0.00 0.00 42 1011.8
20260507035526 72 0 0.0 0.0 0.00 0.00 0.00 42 1011.1
20260507035024 72 0 0.0 0.0 0.00 0.00 0.00 42 1010.8
20260507034024 72 0 0.0 0.0 0.00 0.00 0.00 42 1010.4
20260507033024 72 0 0.0 0.0 0.00 0.00 0.00 42 1010.4
20260507032526 72 0 0.0 0.0 0.00 0.00 0.00 42 1010.4
20260507032024 72 0 0.0 0.0 0.00 0.00 0.00 42 1010.1
20260507031024 72 0 0.0 0.0 0.00 0.00 0.00 42 1010.1
20260507030024 72 0 0.0 0.0 0.00 0.00 0.00 42 1010.4
20260507025024 72 0 0.0 0.0 0.00 0.00 0.00 42 1010.4
20260507024024 72 0 0.0 0.0 0.00 0.00 0.00 42 1010.4
20260507023024 72 0 0.0 0.0 0.00 0.00 0.00 42 1010.1
20260507022024 73 0 0.0 0.0 0.00 0.00 0.00 42 1010.1
20260507021024 73 0 0.0 0.0 0.00 0.00 0.00 42 1010.1
20260507020024 73 0 0.0 0.0 0.00 0.00 0.00 42 1009.8
20260507015024 73 0 0.0 0.0 0.00 0.00 0.00 42 1009.8
20260507014024 73 0 0.0 0.0 0.00 0.00 0.00 42 1009.8
20260507013024 73 0 0.0 0.0 0.00 0.00 0.00 42 1009.8
20260507012024 73 0 0.0 0.0 0.00 0.00 0.00 42 1009.4
20260507011024 73 0 0.0 0.0 0.00 0.00 0.00 42 1009.4
20260507010024 73 0 0.0 0.0 0.00 0.00 0.00 42 1009.1
20260507005024 73 0 0.0 0.0 0.00 0.00 0.00 42 1009.1
20260507004025 73 0 0.0 0.0 0.00 0.00 0.00 42 1008.8
20260507003024 73 0 0.0 0.0 0.00 0.00 0.00 42 1009.1
20260507002024 73 0 0.0 0.0 0.00 0.00 0.00 42 1008.8
20260507001024 73 0 0.0 0.0 0.00 0.00 0.00 42 1008.8
20260507000024 73 0 0.0 0.0 0.00 0.00 0.00 42 1008.4
20260506235024 73 0 0.0 0.0 0.00 0.00 0.00 42 1008.4
20260506234024 73 0 0.0 0.0 0.00 0.00 0.00 42 1008.4
20260506233024 73 0 0.0 0.0 0.00 0.00 0.00 42 1008.4
20260506232024 73 0 0.0 0.0 0.00 0.00 0.00 43 1008.4
20260506231024 73 0 0.0 0.0 0.00 0.00 0.00 42 1008.1
20260506230024 73 0 0.0 0.0 0.00 0.00 0.00 43 1007.7
20260506225024 73 0 0.0 0.0 0.00 0.00 0.00 43 1007.7
20260506224024 73 0 0.0 0.0 0.00 0.00 0.00 43 1008.1
20260506223025 73 0 0.0 0.0 0.00 0.00 0.00 43 1008.1
20260506222024 73 0 0.0 0.0 0.00 0.00 0.00 43 1008.4
20260506221025 73 0 0.0 0.0 0.00 0.00 0.00 44 1008.1
20260506220025 73 0 0.0 0.0 0.00 0.00 0.00 44 1008.1
20260506215025 73 0 0.0 0.0 0.00 0.00 0.00 44 1007.7
20260506214025 73 0 0.0 0.0 0.00 0.00 0.00 44 1008.1
20260506213025 73 0 0.0 0.0 0.00 0.00 0.00 44 1008.4
20260506212025 73 0 0.0 0.0 0.00 0.00 0.00 44 1008.4
20260506211025 73 0 0.0 0.0 0.00 0.00 0.00 44 1008.4
20260506210025 73 0 0.0 0.0 0.00 0.00 0.00 43 1008.4
20260506205025 73 0 0.0 0.0 0.00 0.00 0.00 44 1008.4
20260506204025 73 0 0.0 0.0 0.00 0.00 0.00 44 1008.8
20260506203025 73 0 0.0 0.0 0.00 0.00 0.00 44 1008.8
20260506202025 73 0 0.0 0.0 0.00 0.00 0.00 45 1008.8
20260506201025 73 0 0.0 0.0 0.00 0.00 0.00 45 1008.4
20260506200025 73 0 0.0 0.0 0.00 0.00 0.00 45 1008.8
20260506195025 73 0 0.0 0.0 0.00 0.00 0.00 45 1009.1
20260506194025 73 0 0.0 0.0 0.00 0.00 0.00 45 1009.1
20260506193025 73 0 0.0 0.0 0.00 0.00 0.00 45 1009.1
20260506192025 73 0 0.0 0.0 0.00 0.00 0.00 45 1009.1
20260506191025 73 0 0.0 0.0 0.00 0.00 0.00 45 1009.1
20260506190025 73 0 0.0 0.0 0.00 0.00 0.00 45 1009.4
20260506185025 73 0 0.0 0.0 0.00 0.00 0.00 45 1009.4
20260506184025 73 0 0.0 0.0 0.00 0.00 0.00 45 1009.4
20260506183025 73 0 0.0 0.0 0.00 0.00 0.00 46 1009.8
20260506182025 73 0 0.0 0.0 0.00 0.00 0.00 46 1009.8
20260506181025 73 0 0.0 0.0 0.00 0.00 0.00 46 1010.1
20260506180025 73 0 0.0 0.0 0.00 0.00 0.00 46 1010.1
20260506175025 73 0 0.0 0.0 0.00 0.00 0.00 46 1010.1
20260506174025 73 0 0.0 0.0 0.00 0.00 0.00 46 1010.4
20260506173025 73 0 0.0 0.0 0.00 0.00 0.00 47 1010.4
20260506172025 73 0 0.0 0.0 0.00 0.00 0.00 47 1010.4
20260506171025 72 0 0.0 0.0 0.00 0.00 0.00 47 1010.4
20260506170025 72 0 0.0 0.0 0.00 0.00 0.00 47 1010.1
20260506165025 72 0 0.0 0.0 0.00 0.00 0.00 45 1010.1
20260506164026 72 0 0.0 0.0 0.00 0.00 0.00 44 1009.8
20260506163026 72 0 0.0 0.0 0.00 0.00 0.00 44 1010.1
20260506162026 72 0 0.0 0.0 0.00 0.00 0.00 44 1009.8
20260506161026 72 0 0.0 0.0 0.00 0.00 0.00 44 1009.4
20260506160026 72 0 0.0 0.0 0.00 0.00 0.00 45 1009.4
20260506155026 72 0 0.0 0.0 0.00 0.00 0.00 46 1009.4
20260506154026 72 0 0.0 0.0 0.00 0.00 0.00 45 1009.4
20260506153026 72 0 0.0 0.0 0.00 0.00 0.00 42 1009.4
20260506152026 72 0 0.0 0.0 0.00 0.00 0.00 42 1009.4
20260506151026 72 0 0.0 0.0 0.00 0.00 0.00 42 1009.4
20260506150026 72 0 0.0 0.0 0.00 0.00 0.00 43 1009.1
20260506145026 72 0 0.0 0.0 0.00 0.00 0.00 43 1008.8
20260506144026 72 0 0.0 0.0 0.00 0.00 0.00 43 1008.8
20260506143026 72 0 0.0 0.0 0.00 0.00 0.00 43 1008.4
20260506142026 72 0 0.0 0.0 0.00 0.00 0.00 43 1008.4
20260506141026 72 0 0.0 0.0 0.00 0.00 0.00 43 1008.1
20260506140026 72 0 0.0 0.0 0.00 0.00 0.00 43 1008.1
20260506135026 72 0 0.0 0.0 0.00 0.00 0.00 43 1008.1
20260506134026 72 0 0.0 0.0 0.00 0.00 0.00 43 1007.7
20260506133026 72 0 0.0 0.0 0.00 0.00 0.00 43 1007.7
20260506132026 72 0 0.0 0.0 0.00 0.00 0.00 43 1007.7
20260506131026 72 0 0.0 0.0 0.00 0.00 0.00 43 1007.7
20260506130026 72 0 0.0 0.0 0.00 0.00 0.00 43 1007.4
20260506125026 72 0 0.0 0.0 0.00 0.00 0.00 43 1007.4
20260506124026 72 0 0.0 0.0 0.00 0.00 0.00 43 1007.1
20260506123026 72 0 0.0 0.0 0.00 0.00 0.00 43 1007.1
20260506122026 72 0 0.0 0.0 0.00 0.00 0.00 43 1007.1
20260506121026 72 0 0.0 0.0 0.00 0.00 0.00 43 1007.1
20260506120026 72 0 0.0 0.0 0.00 0.00 0.00 43 1006.7
20260506115026 72 0 0.0 0.0 0.00 0.00 0.00 43 1007.1
20260506114026 72 0 0.0 0.0 0.00 0.00 0.00 43 1007.1
20260506113026 72 0 0.0 0.0 0.00 0.00 0.00 43 1007.1
20260506112026 72 0 0.0 0.0 0.00 0.00 0.00 43 1007.1
20260506111026 72 0 0.0 0.0 0.00 0.00 0.00 43 1006.7
20260506110026 72 0 0.0 0.0 0.00 0.00 0.00 43 1006.7